Location: Limoges
(45.8354°N, 1.2645°E)
Time: 20:55:04
(UTC+02:00)

Vanguard 2 Rocket - Pass Details

Date: 02 March 2024
Orbit: 555 x 3307 km, 32.9° (Epoch: 11 April)

Event Time Altitude Azimuth Distance (km) Brightness Sun altitude
Rises 19:31:57 0° 268° (W) 5,285 13.3 -9.2°
Reaches altitude 10° 19:35:59 10° 255° (WSW) 4,697 11.9 -9.9°
Maximum altitude 19:46:03 24° 209° (SSW) 4,457 10.7 -11.7°
Drops below altitude 10° 19:59:06 10° 165° (SSE) 6,148 10.9 -13.9°
Sets 20:05:41 0° 154° (SSE) 7,277 11.2 -15.1°
